Location: Asheville, NC
(35.6000°N, 82.5500°W)
Time: 01:40:55
(UTC-04:00)

XW-2C - Pass Details

Date: 08 January 2018
Orbit: 511 x 530 km, 97.5° (Epoch: 25 April)

Event Time Altitude Azimuth Distance (km) Brightness Sun altitude
Rises 17:53:25 0° 169° (S) 2,653 ? -4.4°
Reaches altitude 10° 17:55:31 10° 170° (S) 1,769 ? -4.8°
Maximum altitude 17:59:21 83° 258° (WSW) 539 ? -5.5°
Drops below altitude 10° 18:03:12 10° 347° (NNW) 1,782 ? -6.2°
Sets 18:05:19 0° 348° (NNW) 2,675 ? -6.6°
